RYR69LM LIMC-EIDW

Flight info

Callsign RYR69LM
Flight time N/A
Altitude 38000
Route AOSTA DCT ORSUD DCT MOLUS DCT IBODI DCT GOTED DCT TRO DCT CLM DCT KOPOR DCT VESAN DCT RATUK DCT SOVAT L613 SANDY DCT OKSAW DCT TEWXI DCT LANON L18 ABLIN
Aircraft B738/M-SDGIJ1LRWY/SB1

Departure

Time 2026-05-06 12:34
Airport Milan Malpensa International Airport (LIMC)

Arrival

Time N/A
Airport Dublin Airport (EIDW)
Time Latitude Longitude Altitude Speed Heading
2026-05-06 12:00 45.62381 8.71656 741 ft 0 kts 349°
2026-05-06 12:21 45.62375 8.71658 740 ft 2 kts 349°
2026-05-06 12:22 45.62361 8.71662 740 ft 2 kts 349°
2026-05-06 12:22 45.62346 8.71666 740 ft 2 kts 349°
2026-05-06 12:22 45.62331 8.71670 739 ft 2 kts 349°
2026-05-06 12:22 45.62317 8.71674 739 ft 1 kts 349°
2026-05-06 12:23 45.62308 8.71675 738 ft 1 kts 37°
2026-05-06 12:23 45.62304 8.71667 738 ft 0 kts 76°
2026-05-06 12:23 45.62303 8.71658 738 ft 1 kts 81°
2026-05-06 12:23 45.62303 8.71656 738 ft 0 kts 81°
2026-05-06 12:26 45.62305 8.71672 738 ft 8 kts 81°
2026-05-06 12:26 45.62325 8.71804 736 ft 14 kts 79°
2026-05-06 12:26 45.62305 8.71928 735 ft 14 kts 154°
2026-05-06 12:27 45.62208 8.71954 734 ft 14 kts 169°
2026-05-06 12:27 45.62108 8.71981 730 ft 15 kts 169°
2026-05-06 12:27 45.61994 8.72013 726 ft 17 kts 168°
2026-05-06 12:27 45.61871 8.72048 723 ft 18 kts 168°
2026-05-06 12:28 45.61742 8.72083 719 ft 19 kts 170°
2026-05-06 12:28 45.61608 8.72121 716 ft 20 kts 169°
2026-05-06 12:28 45.61461 8.72162 712 ft 24 kts 167°
2026-05-06 12:28 45.61284 8.72211 704 ft 26 kts 168°
2026-05-06 12:29 45.61094 8.72263 697 ft 28 kts 168°
2026-05-06 12:29 45.60901 8.72316 692 ft 28 kts 169°
2026-05-06 12:29 45.60717 8.72368 690 ft 22 kts 165°
2026-05-06 12:29 45.60637 8.72535 690 ft 21 kts 98°
2026-05-06 12:30 45.60621 8.72737 691 ft 19 kts 96°
2026-05-06 12:30 45.60601 8.72963 690 ft 28 kts 98°
2026-05-06 12:30 45.60608 8.73239 689 ft 26 kts 64°
2026-05-06 12:30 45.60772 8.73350 685 ft 26 kts 22°
2026-05-06 12:31 45.60943 8.73399 684 ft 25 kts 349°
2026-05-06 12:31 45.61111 8.73348 686 ft 23 kts 349°
2026-05-06 12:31 45.61259 8.73307 689 ft 20 kts 350°
2026-05-06 12:31 45.61389 8.73273 692 ft 17 kts 348°
2026-05-06 12:32 45.61497 8.73241 695 ft 14 kts 351°
2026-05-06 12:32 45.61599 8.73240 697 ft 18 kts 31°
2026-05-06 12:32 45.61623 8.73456 696 ft 26 kts 109°
2026-05-06 12:32 45.61593 8.73680 696 ft 18 kts 72°
2026-05-06 12:33 45.61683 8.73730 698 ft 14 kts 337°
2026-05-06 12:33 45.61726 8.73709 699 ft 0 kts 345°
2026-05-06 12:33 45.61746 8.73703 699 ft 22 kts 349°
2026-05-06 12:33 45.62172 8.73591 709 ft 99 kts 347°
2026-05-06 12:34 45.63072 8.73338 725 ft 162 kts 349°
2026-05-06 12:34 45.64253 8.72952 1185 ft 179 kts 347°
2026-05-06 12:34 45.65485 8.72609 1871 ft 185 kts 360°
2026-05-06 12:34 45.66762 8.72621 2596 ft 186 kts
2026-05-06 12:35 45.68110 8.72627 2970 ft 201 kts
2026-05-06 12:35 45.69550 8.72594 3376 ft 215 kts
2026-05-06 12:35 45.71112 8.72571 3717 ft 233 kts
2026-05-06 12:35 45.72744 8.72186 4198 ft 245 kts 335°
2026-05-06 12:36 45.74081 8.70683 4764 ft 253 kts 309°
2026-05-06 12:36 45.74900 8.68407 5155 ft 266 kts 280°
2026-05-06 12:36 45.74805 8.65767 5610 ft 274 kts 249°
2026-05-06 12:36 45.73934 8.63380 6314 ft 274 kts 238°
2026-05-06 12:37 45.73362 8.60776 7011 ft 281 kts 266°
2026-05-06 12:37 45.73692 8.58008 7723 ft 287 kts 285°
2026-05-06 12:37 45.74274 8.55296 8427 ft 288 kts 283°
2026-05-06 12:37 45.74683 8.52512 9139 ft 288 kts 276°
2026-05-06 12:38 45.74912 8.49709 9812 ft 289 kts 272°
2026-05-06 12:38 45.75058 8.46807 10337 ft 298 kts 271°
2026-05-06 12:38 45.75178 8.43808 10734 ft 312 kts 271°
2026-05-06 12:38 45.75306 8.40634 11136 ft 327 kts 271°
2026-05-06 12:39 45.75447 8.37294 11543 ft 341 kts 272°
2026-05-06 12:39 45.75600 8.33911 12361 ft 344 kts 271°
2026-05-06 12:39 45.75760 8.30504 13187 ft 347 kts 271°
2026-05-06 12:39 45.75918 8.27088 13754 ft 350 kts 271°
2026-05-06 12:40 45.76076 8.23589 13862 ft 350 kts 271°
2026-05-06 12:40 45.76234 8.20130 13861 ft 347 kts 271°
2026-05-06 12:40 45.76388 8.16701 13892 ft 347 kts 271°
2026-05-06 12:40 45.76539 8.13242 13922 ft 349 kts 271°
2026-05-06 12:41 45.76686 8.09787 14076 ft 360 kts 271°
2026-05-06 12:41 45.76838 8.06236 15175 ft 352 kts 271°
2026-05-06 12:41 45.76983 8.02763 15854 ft 357 kts 271°
2026-05-06 12:41 45.77130 7.99185 16481 ft 364 kts 271°
2026-05-06 12:42 45.77287 7.95581 17182 ft 367 kts 273°
2026-05-06 12:42 45.77790 7.91994 17853 ft 374 kts 289°
2026-05-06 12:42 45.79084 7.88728 18502 ft 382 kts 303°
2026-05-06 12:42 45.80727 7.85783 19148 ft 386 kts 307°
2026-05-06 12:43 45.82480 7.82858 19796 ft 389 kts 307°
2026-05-06 12:43 45.84224 7.79910 20472 ft 390 kts 306°
2026-05-06 12:43 45.85952 7.76919 21109 ft 392 kts 304°
2026-05-06 12:43 45.87668 7.73888 21641 ft 396 kts 304°
2026-05-06 12:44 45.89388 7.70798 22178 ft 400 kts 304°
2026-05-06 12:44 45.91122 7.67646 22685 ft 404 kts 303°
2026-05-06 12:44 45.92856 7.64474 23250 ft 406 kts 303°
2026-05-06 12:44 45.94583 7.61305 23777 ft 409 kts 303°
2026-05-06 12:45 45.96337 7.58070 24228 ft 414 kts 303°
2026-05-06 12:45 45.98118 7.54781 24723 ft 417 kts 303°
2026-05-06 12:45 46.01701 7.48153 25599 ft 423 kts 303°
2026-05-06 12:46 46.03493 7.44834 26043 ft 425 kts 303°
2026-05-06 12:46 46.05311 7.41458 26377 ft 429 kts 303°
2026-05-06 12:46 46.07133 7.38075 26748 ft 433 kts 303°
2026-05-06 12:46 46.08976 7.34647 27108 ft 436 kts 302°
2026-05-06 12:47 46.10825 7.31210 27579 ft 436 kts 302°
2026-05-06 12:47 46.12701 7.27720 27870 ft 440 kts 302°
2026-05-06 12:47 46.14562 7.24252 28294 ft 442 kts 301°
2026-05-06 12:47 46.16447 7.20724 28642 ft 445 kts 301°
2026-05-06 12:48 46.18323 7.17216 29179 ft 444 kts 301°
2026-05-06 12:48 46.20220 7.13660 29392 ft 451 kts 301°
2026-05-06 12:48 46.22126 7.10081 29785 ft 452 kts 301°
2026-05-06 12:48 46.24024 7.06517 30117 ft 455 kts 301°
2026-05-06 12:49 46.25964 7.02867 30476 ft 457 kts 301°
2026-05-06 12:49 46.27904 6.99212 30820 ft 459 kts 301°
2026-05-06 12:49 46.29197 6.96776 31159 ft 458 kts 301°